Location: Goheenville
(40.9070°N, 79.3720°W)
Time: 23:15:08
(UTC-04:00)

Meteor 2-10 Rocket - Visible Passes

Search period start: 25 August 2016 00:00
Search period end: 04 September 2016 00:00
Orbit: 734 x 885 km, 81.2° (Epoch: 24 August)

Date Brightness Start Highest point End Pass type
(mag) Time Alt. Az. Time Alt. Az. Time Alt. Az.
25 Aug 6.6 04:49:43 10° ESE 04:52:22 13° E 04:55:01 10° NE visible
26 Aug 4.1 06:03:37 10° S 06:09:25 75° E 06:15:09 10° NNE visible
27 Aug 4.6 05:39:35 10° S 05:45:13 54° E 05:50:47 10° NNE visible
28 Aug 5.2 05:15:44 10° SSE 05:21:04 39° E 05:26:19 10° NNE visible
29 Aug 5.7 04:52:07 10° SE 04:56:57 28° E 05:01:43 10° NNE visible
30 Aug 6.1 04:28:46 10° SE 04:32:52 20° E 04:36:55 10° NE visible
30 Aug 3.9 06:08:50 10° SSW 06:14:28 53° WNW 06:20:01 10° N visible
31 Aug 6.4 04:05:52 10° ESE 04:08:49 14° E 04:11:44 10° NE visible
31 Aug 3.7 05:44:24 10° SSW 05:50:11 74° W 05:55:51 10° N visible
01 Sep 3.8 05:20:10 10° S 05:25:56 81° E 05:31:36 10° NNE visible
02 Sep 4.3 04:56:05 10° S 05:01:43 58° E 05:07:14 10° NNE visible
03 Sep 4.8 04:32:12 10° SSE 04:37:34 42° E 04:42:47 10° NNE visible
03 Sep 4.8 06:15:00 10° SW 06:19:44 26° WNW 06:24:22 10° NNW visible
